Home > Time Zones > World Clock > Weather > Russia > Perm > Past weeks

Flag for Russia Weather past 2 weeks in Perm, Russia

Now
57 °F

Overcast.


Feels Like: 55 °F
Forecast: 47 / 70 °F
Wind: 10 mph from North

Location: Perm'/Bolshoe Savino

Current Time: Jul 28, 2014 at 5:53:20 PM

Latest Report: Jul 28, 2014 at 5:30 PM


Visibility: N/A

Pressure: 29.98 "Hg

Humidity: 67%

Dew point: 46 °F

Location of PermLocation

Historic Weather in Perm — Graph

°F

Perm temperature yesterday

Maximum temperature yesterday: 57 °F (at 7:30 PM)
Minimum temperature yesterday: 46 °F (at 12:30 AM)
Average temperature yesterday: 51 °F

Past Weeks' High & Low Weather Summary

 TemperatureHumidityPressure
High82 °F (Jul 16, 5:30 PM)100% (Jul 16, 5:00 AM)30.07 "Hg (Jul 16, 5:00 AM)
Low43 °F (Jul 18, 4:30 AM)33% (Jul 14, 3:30 PM)29.50 "Hg (Jul 23, 5:00 AM)
Average56 °F75%29.82 "Hg
* Reported Jul 13 4:00 PM — Jul 28 4:30 PM, Perm, Weather by CustomWeather, © 2014

Note: Actual official high and low records may vary slightly from our data, if they occured in-between our weather recording intervals... More about our weather records

Advertising

Perm weather history for previous 24 hours

 ConditionsComfort  
Time TempWeatherWind HumidityBarometerVisibility
4:30 PM
Jul 28
57 °FOvercast.8 mph67%29.98 "HgN/A
4:00 PM57 °FPartly sunny.8 mph67%29.98 "HgN/A
3:30 PM57 °FPartly sunny.10 mph67%29.98 "HgN/A
3:00 PM57 °FPartly sunny.10 mph67%29.98 "HgN/A
2:30 PM55 °FPartly sunny.8 mph67%29.98 "HgN/A
2:00 PM55 °FPartly sunny.6 mph72%29.98 "HgN/A
1:30 PM52 °FOvercast.10 mph77%29.98 "HgN/A
1:00 PM52 °FOvercast.10 mph72%29.95 "HgN/A
12:30 PM52 °FMostly cloudy.10 mph72%29.95 "HgN/A
12:00 PM54 °FMostly cloudy.15 mph67%29.95 "HgN/A
11:30 AM52 °FMostly cloudy.10 mph77%29.95 "HgN/A
11:00 AM54 °FPartly sunny.10 mph72%29.95 "HgN/A
10:30 AM54 °FBroken clouds.13 mph72%29.92 "HgN/A
10:00 AM54 °FBroken clouds.10 mph77%29.92 "HgN/A
9:30 AM54 °FSunny.10 mph77%29.92 "Hg10 mi
9:00 AM52 °FSunny.8 mph82%29.92 "Hg10 mi
8:30 AM52 °FSunny.8 mph82%29.92 "Hg10 mi
8:00 AM54 °FSunny.8 mph82%29.92 "Hg10 mi
7:30 AM52 °FSunny.6 mph88%29.92 "Hg10 mi
7:00 AM50 °FSunny.3 mph94%29.92 "Hg10 mi
6:30 AM50 °FSunny.6 mph94%29.92 "Hg10 mi
6:00 AM50 °FSunny.6 mph94%29.92 "Hg10 mi
5:30 AM50 °FPassing clouds.6 mph94%29.92 "HgN/A
5:00 AM50 °FPassing clouds.3 mph94%29.92 "HgN/A
4:30 AM50 °FPassing clouds.6 mph94%29.92 "HgN/A
4:00 AM50 °FPassing clouds.6 mph94%29.92 "HgN/A
3:30 AM50 °FPartly cloudy.6 mph94%29.92 "HgN/A
3:00 AM48 °FPassing clouds.6 mph94%29.92 "HgN/A
2:30 AM48 °FClear.6 mph94%29.92 "Hg10 mi
2:00 AM50 °FPartly cloudy.6 mph88%29.92 "HgN/A
1:30 AM52 °FPartly cloudy.6 mph88%29.92 "HgN/A
1:00 AM52 °FClear.6 mph88%29.92 "Hg10 mi
12:30 AM52 °FClear.6 mph88%29.92 "Hg10 mi
12:00 AM52 °FClear.6 mph88%29.92 "Hg10 mi
11:30 PM
Jul 27
52 °FClear.3 mph88%29.92 "Hg10 mi
11:00 PM52 °FClear.3 mph88%29.92 "Hg10 mi
10:30 PM52 °FPassing clouds.3 mph88%29.92 "HgN/A
10:00 PM54 °FSunny.6 mph77%29.92 "Hg10 mi
9:30 PM54 °FPartly sunny.8 mph77%29.92 "HgN/A
9:00 PM54 °FPartly sunny.8 mph77%29.89 "HgN/A
8:30 PM54 °FPartly sunny.8 mph72%29.89 "HgN/A
8:00 PM55 °FPartly sunny.8 mph67%29.89 "HgN/A
7:30 PM57 °FPartly sunny.10 mph67%29.89 "HgN/A
7:00 PM55 °FSunny.8 mph72%29.89 "Hg10 mi
6:30 PM55 °FMostly cloudy.8 mph72%29.89 "HgN/A
6:00 PM55 °FMostly cloudy.8 mph72%29.89 "HgN/A
5:30 PM55 °FSunny.8 mph72%29.89 "Hg10 mi
5:00 PM55 °FSunny.8 mph72%29.86 "Hg10 mi
Weather by CustomWeather, © 2014

See weather overviewHow to use our weather pages